Location: Songkhla
(7.2000°N, 100.6000°E)
Time: 20:12:47
(UTC+07:00)

ISS - Pass Details

Date: 19 April 2026
Orbit: 414 x 424 km, 51.6° (Epoch: 19 May)

Event Time Altitude Azimuth Distance (km) Brightness Sun altitude
Rises 03:16:48 0° 247° (WSW) 2,339 - -41.7°
Reaches altitude 10° 03:19:36 10° 273° (W) 1,478 - -41.0°
Maximum altitude 03:21:29 14° 308° (NW) 1,243 - -40.6°
Drops below altitude 10° 03:23:23 10° 343° (NNW) 1,480 - -40.1°
Sets 03:26:12 0° 9° (N) 2,343 - -39.5°
